Flag for United Kingdom Weather past 2 weeks in Rotherham, England, United Kingdom

Now
61 °F

Refreshingly cool.


Feels Like: 61 °F
Forecast: 48 / 61 °F
Wind: 20 mph from Southwest

Location: Nottingham Weather Centre

Current Time: Jun 2, 2015 at 7:05:40 PM

Latest Report: Jun 2, 2015 at 6:00 PM


Visibility: 14 mi

Pressure: 29.59 "Hg

Humidity: 49%

Dew point: 42 °F

Location of RotherhamLocation

Historic Weather in Rotherham — Graph

°F

Rotherham temperature yesterday

Maximum temperature yesterday: 55 °F (at 11:00 AM)
Minimum temperature yesterday: 40 °F (at 5:00 AM)
Average temperature yesterday: 49 °F

Past Weeks' High & Low Weather Summary

 TemperatureHumidityPressure
High65 °F (May 22, 3:00 PM)100% (May 31, 6:00 AM)30.32 "Hg (May 31, 6:00 AM)
Low40 °F (Jun 1, 5:00 AM)43% (May 31, 5:00 PM)29.35 "Hg (Jun 2, 3:00 AM)
Average52 °F74%29.96 "Hg
* Reported May 18 5:00 PM — Jun 2 5:00 PM, Rotherham, Weather by CustomWeather, © 2015

Note: Actual official high and low records may vary slightly from our data, if they occured in-between our weather recording intervals... More about our weather records

Advertising

Rotherham weather history for previous 24 hours

 ConditionsComfort  
Time TempWeatherWind HumidityBarometerVisibility
5:00 PM
Tue, Jun 2
62 °FMild.21 mph48%29.56 "Hg9 mi
4:00 PM63 °FMild.22 mph52%29.54 "Hg7 mi
3:00 PM63 °FMild.20 mph53%29.47 "Hg31 mi
2:00 PM61 °FCool.18 mph72%29.44 "Hg31 mi
1:00 PM63 °FMild.17 mph64%29.44 "Hg22 mi
12:00 PM58 °FRain showers. Cloudy.16 mph89%29.44 "Hg11 mi
11:00 AM58 °FSmoke.15 mph86%29.41 "Hg5 mi
10:00 AM57 °FCool.16 mph94%29.41 "Hg18 mi
9:00 AM55 °FFog.9 mph99%29.41 "Hg1 mi
8:00 AM53 °FCool.10 mph93%29.41 "Hg9 mi
7:00 AM52 °FCool.10 mph93%29.38 "Hg31 mi
6:00 AM51 °FCool.12 mph94%29.38 "Hg11 mi
5:00 AM51 °FCool.12 mph97%29.38 "Hg22 mi
3:00 AM53 °FCool.16 mph98%29.35 "Hg2 mi
2:00 AM52 °FFog.18 mph97%29.38 "Hg7 mi
1:00 AM52 °FCool.20 mph95%29.38 "Hg5 mi
12:00 AM50 °FCool.17 mph96%29.41 "Hg7 mi
11:00 PM
Mon, Jun 1
49 °FCool.17 mph95%29.44 "Hg6 mi
9:00 PM48 °FRain. Cloudy.17 mph92%29.54 "Hg7 mi
8:00 PM48 °FLots of rain. Cloudy.16 mph87%29.59 "Hg5 mi
7:00 PM50 °FCool.13 mph74%29.64 "Hg11 mi
Weather by CustomWeather, © 2015

See weather overviewHow to use our weather pages